Hourly Data Report for August 24, 2001

SHERBROOKE A
QUEBEC

45°26'00.000" N
71°41'00.000" W
241.40 m
7028124
71610
YSC

Download Data

Hourly Data (August 2001)
Hourly Data Report for August 24, 2001
TIME
LST
Temp Definition
°C
Dew Point Definition
°C
Rel Hum Definition
%
Precip. Amount Definition
mm

Wind Dir Definition
10's deg

Wind Spd Definition
km/h
Visibility Definition
km
Stn Press Definition
kPa
Hmdx Definition


Wind Chill Definition


Weather Definition


00:00 14.7 14.5 99     0 0.3 98.78      
01:00 14.6 14.0 96   35 6 15.0 98.79      
02:00 12.9 12.0 94   36 4 15.0 98.84      
03:00 10.0 9.2 95     0 15.0 98.85      
04:00 8.3 7.9 97     0 15.0 98.91      
05:00 6.8 6.4 97     0 15.0 99.00      
06:00 9.6 9.3 98     0 15.0 99.07      
07:00 12.4 10.9 91     0 24.1 99.12     Mainly Clear
08:00 14.7 12.1 84   36 6 24.1 99.16     Mainly Clear
09:00 16.0 11.4 74   3 9 24.1 99.18     Mainly Clear
10:00 17.8 12.2 70   8 7 24.1 99.18     Mainly Clear
11:00 19.0 10.9 59   8 13 24.1 99.17     Mostly Cloudy
12:00 19.6 10.8 57   33 11 24.1 99.15     Mostly Cloudy
13:00 20.2 9.6 50   1 13 24.1 99.15     Mainly Clear
14:00 21.1 10.0 49   32 7 24.1 99.10     Mainly Clear
15:00 20.9 9.6 48   33 15 24.1 99.12     Mainly Clear
16:00 20.2 9.4 50   32 15 24.1 99.15     Clear
17:00 19.4 8.6 50   34 11 15.0 99.16      
18:00 17.7 9.3 58   31 6 15.0 99.21      
19:00 14.6 8.6 67   32 4 15.0 99.27      
20:00 10.5 7.7 83     0 15.0 99.31      
21:00 8.5 7.4 93     0 15.0 99.32      
22:00 7.7 7.1 96   12 6 15.0 99.36      
23:00 7.9 7.4 97   11 6 15.0 99.37      

Notes on Data Quality.

Legend

  • E = Estimated
  • M = Missing
  • NA = Not Available*
  • [empty] = Indicates an unobserved value
Date modified: